Погода в Любашевке

Погода в Любашевке : погода сейчас, прогноз погоды и архив. Всё, что Вы хотите узнать о погоде в Любашевке!

Хотите узнать прогноз погоды в Любашевке? Тогда Вам сюда: Погода в Любашевке

Поиск расширенной информации на нашем сайте:

Полезная информация: Схемы вышивки рушника на иконы.

Другие новости

Новости СМИ2

Главная страница сайта

Новости сайта

02.10.2013

Напоминаем, что на нашем новом сайте вы можете получить высокодетализированные прогнозы погоды по пунктам России, СНГ и мира (включающие важные для авиации метеовеличины, такие как направление и скорость ветра, видимость, явления погоды, количество и форма облачности, нижняя и верхняя граница облачности), а также ознакомиться с разнообразными материалами по авиационной метеорологии и подборкой полезных ссылок на эту тему.

Сайт Метеоцентр.Азия посвящён разработке технологий оптимизации авиаметеорологического обслуживания, включая проектирование и перспективное создание нескольких автоматизированных авиаметеорологических систем:
- система выпуска высокодетальных прогностических карт явлений погоды для нижнего воздушного пространства по России и ближнему зарубежью;
- система верификации прогнозов TAF (выпускаемых синоптиками официальных АМСГ РФ и ближнего зарубежья) и AUTOTAF (выпускаемых сайтом Метеоцентр.Азия) - выявление ошибок, онлайн-сопоставление с фактической погодой METAR, автоматическое внесение коррективов в прогнозы при резком отклонении фактической погоды от прогноза, подсчёт оправдываемости прогнозов по элементам и в целом;
- система обработки, анализа и отображения авиаметеорологической информации для применения провайдерами метеорологической информации.

Рекомендуем: Официальный сайт янган-тау yangantau.putevka-perm.ru.

Погода в Любашевке - сегодня

Время (UTC), дата Ветер
(°,м/с) 
Видим.   Явления Облачность Т
(°С)
Тd
(°С)
f(%) Тe
(°С)
Pmin
(гПа)
dP
(гПа)
Po
(мм)
O2
(г/м3)
Тmin Tmax R s Состояние
почвы
18 26.05.17 350 (С) 20000 м    6/3 600 м средняя, верхняя 
[Sc diur, vesp|Ac trans|Cs]
+16 +10.7 71 +19  1013.5  0.7  744  281    +22       
21 26.05.17 тихо ()   10 км    10/0 верхняя 
[Cs]
+14.4 +11 80 +17  1014  0.4  744  283           
00 27.05.17 тихо ()   4000 м  слаб. дождь  10/10 300 м 
[Frnb|Ns]
+13.2 +12.4 95 +18  1014.2  0.1  744  284      0.7     
03 27.05.17 360 (С) 6000 м  слаб. дождь  10/10 300 м 
[Frnb|Ns]
+12.9 +12.5 97 +18  1014.2  744  284           
06 27.05.17 010 (С) 12000 м  {дождь}  10/10 300 м 
[St]
+13.8 +12 89 +17  1015  0.8  745  283  +12.8       
09 27.05.17 020 (С) 20000 м    9/9 300 м кучево-дожд. 
[Cb cap]
+16.5 +10 65 +17  1015.4  0.6  745  281           
12 27.05.17 030 (СВ) 20000 м    10/3 1000 м средняя, верхняя 
[Cu med, cong|Ac As|Cc]
+18.6 +9.8 57 +20  1015.2  745  279           
15 27.05.17 010 (С) 20000 м    9/4 300 м кучево-дожд., средняя, верхняя 
[Cb cap|Ac lent|Ci ing]
+16.8 +10.2 65 +19  1015.9  0.5  746  281           
18 27.05.17 010 (С) 20000 м    9/6 600 м средняя 
[Sc|Ac cast]
+15.1 +9.5 69 +16  1017.2  1.2  747  283           
21 27.05.17 340 (С) 4000 м  дымка  3/0 средняя 
[Ac trans]
+12.2 +10.6 90 +15  1018.9  1.4  748  286           
00 28.05.17 350 (С) 10 км    ясно 
+12.2 +10 86 +13  1019.4  0.5  748  287           
03 28.05.17 360 (С) 20000 м    ясно 
+11.8 +8.4 80 +11  1020.3  0.8  749  288           
06 28.05.17 010 (С) 20000 м    ясно 
+17 +8.6 58 +17  1021.4  1.5  750  283  +11.1  +2.7       
09 28.05.17 010 (С) 20000 м    5/5 1000 м 
[Cu med, cong]
+21.6 +6.2 37 +22  1021.4  0.3  750  279           
12 28.05.17 350 (С) 20000 м    8/6 1000 м верхняя 
[Cu hum|Ci fib]
+21.9 +5 33 +22  1021.1  -0.3  750  279           
15 28.05.17 350 (С) 20000 м    9/4 1000 м верхняя 
[Cu hum|Ci fib]
+22.9 +4.5 30 +23  1020.5  -0.5  749  278           
18 28.05.17 тихо ()   20000 м    3/1 600 м верхняя 
[Sc diur, vesp|Ci fib]
+17.4 +9.7 61 +18  1021.3  0.4  750  282    +23.9       
21 28.05.17 тихо ()   20000 м    ясно 
+13.6 +8.6 72 +14  1022.3  0.7  750  286           
00 29.05.17 тихо ()   20000 м    ясно 
+12.7 +8.6 76 +13  1021.8  -0.5  750  287           
03 29.05.17 тихо ()   20000 м    ясно 
+12.5 +8.6 77 +13  1020.8  -1  749  287           
06 29.05.17 330 (СЗ) 20000 м    ясно 
+21.2 +10.2 49 +23  1020.1  -0.1  749  278  +11.4  +3.3       
09 29.05.17 210 (ЮЗ) 20000 м    6/6 1000 м 
[Cu med, cong]
+24.6 +8.9 37 +25  1018.7  -1.1  748  275           
12 29.05.17 290 (З) 20000 м    8/6 1000 м верхняя 
[Cu med, cong|Ci fib]
+24.4 +8.6 37 +24  1017  -1.7  747  275           
15 29.05.17 250 (З) 20000 м    4/4 1000 м 
[Cu med, cong]
+24.9 +7.3 32 +25  1015.3  -1.6  746  274           
18 29.05.17 240 (ЮЗ) 20000 м    3/0 верхняя 
[Ci]
+21.2 +9.4 47 +22  1014.3  -1.2  748  278           
Время (UTC), дата Ветер
(°,м/с) 
Видим.   Явления Облачность Т
(°С)
Тd
(°С)
f(%) Тe
(°С)
Pmin
(гПа)
dP
(гПа)
Po
(мм)
O2
(г/м3)
Тmin Tmax R s Состояние
почвы

Для получения пояснительной информации подведите курсор к названию столбца.

ПОГОДА в Любашевке - архив

Всё, что Вы хотите узнать о погоде в Любашевке - удобно и подробно!

Выберите нужную дату (начиная с 1 января 2015* года) и нажмите кнопку "Найти".
Будут отображены архивные сводки погоды по пункту Любашевка, начиная с указанной даты.


Отображать данные в формате CSV (для использования в таблицах Excel)


Внимание! Наш архив погоды предназначен исключительно для личного некоммерческого использования в познавательных целях. Если Вам необходимы официальные справки о состоянии погоды (для производственных, юридических, коммерческих и т.п. целей), обращайтесь в органы Росгидромета.

*Примечание: данная дата относится к архиву по метеостанциям СССР (Россия, СНГ, Балтия).
Архив по метеостанциям Зарубежной Европы и Азии (кроме Китая) хранится 10 дней, по другим регионам земного шара (Китай, Африка, Америка, Австралия, Океания) - 1 день.

Любашевка - район местоположения метеостанции


Название, широта, долгота, высота метеостанции:
Любашевка 47.9°ш. 30.3°д. 183 м над ур. моря [Украина]

Дополнительная информация

В oтличие oт бoльшинства пoгoдных сайтoв мы публикуем пoдрoбную метеoинфoрмацию в детальнoм прoфессиoнальнoм фoрмате.

Характеристики температуры и влажнoсти вoздуха измеряются на высoте 2 м в тени вдали oт зданий и деревьев.
Скoрoсть ветра измеряется на высoте 10 м (на урoвне рoста челoвека скoрoсть ветра ниже в 1.5-2 раза). Если метеoстанция нахoдится в гoрoде или в лесу, тo скoрoсть ветра занижена на 2-4 м/с пo сравнению с oткрытым местoм. Скoрoсть ветра над акватoриями крупных рек и oзёр, а также на вершинах хoлмoв на 2-5 м/с выше, чем в oбычных услoвиях.
Атмoсфернoе давление в разных тoчках местнoсти мoжет значительнo oтличаться oт давления на метеoстанции, в зависимoсти oт услoвий рельефа (при пoдъёме на 10 м давление пoнижается примернo на 1 мм рт.ст.).